Weather observations for the past three days for
Altus Air Force Base
Imperial (Metric)
Date Time (cdt) Wind (mph) Vis. (mi.) Weather Sky Cond. Temperature (ºF) Relative Humidity Wind Chill (°F) Heat Index (°F) Pressure Precipitation (in)
Air Dwpt 6 hour altimeter (in) sea level (mb) 1 hr 3 hr 6 hr
Max. Min.
20 03:55 E 6 10.00 Fair CLR 69.6 64.6 84% 30.14 1019.0
20 02:55 SE 7 10.00 Partly Cloudy SCT090 73.2 66.2 79% 30.14 1018.9
20 01:55 SE 6 10.00 Fair CLR 73.8 66 77% 30.15 1019.3
20 00:55 SE 10 10.00 Fair CLR 76.1 66 85.5 76.1 71% 78 30.16 1019.7
19 23:55 SE 13 10.00 Overcast OVC085 79.5 66.2 64% 82 30.15 1019.2
19 22:55 SE 12 10.00 Overcast FEW080 OVC095 80.8 66 61% 83 30.14 1019.2
19 21:55 SE 12 10.00 Overcast FEW049 OVC090 82 64.8 56% 84 30.12 1018.3
19 20:55 SE 7 10.00 Overcast OVC085 82.6 63.7 53% 84 30.09 1017.3
19 19:55 SE 15 10.00 Overcast OVC085 84.7 64.6 51% 86 30.07 1016.6
19 18:55 E 14 10.00 Overcast OVC085 85.5 65.1 89.8 81.3 51% 87 30.06 1016.1
19 17:55 SE 17 10.00 Overcast FEW055 OVC085 86.9 65.3 49% 89 30.05 1015.8
19 16:55 E 13 10.00 Mostly Cloudy BKN085 87.8 64.9 47% 90 30.06 1016.0
19 15:55 SE 15 10.00 Mostly Cloudy FEW050 BKN080 88.7 64.6 45% 90 30.06 1016.0
19 14:55 E 12 10.00 Mostly Cloudy BKN075 86.9 66 50% 89 30.08 1016.7
19 09:55 NE 16 10.00 Overcast BKN028 OVC032 74.3 64.2 71% 30.13 1018.6
19 08:55 NE 14 10.00 Overcast BKN020 OVC060 76.3 67.3 74% 78 30.11 1017.8
19 07:55 E 10 10.00 Partly Cloudy FEW075 SCT095 75 66.6 75% 76 30.07 1016.4
19 06:55 E 9 10.00 Overcast FEW065 OVC075 74.1 66.7 80.1 73.9 78% 30.04 1015.3
19 05:55 SE 10 10.00 Partly Cloudy FEW080 SCT180 74.5 67.5 79% 29.99 1013.6
19 04:55 SE 12 10.00 Overcast OVC180 75.9 68.9 79% 77 29.94 1011.9
19 03:55 SE 13 10.00 Mostly Cloudy BKN180 75.9 68.9 79% 77 29.9 1010.6
19 02:55 SE 15 10.00 A Few Clouds FEW180 77.2 68.5 75% 79 29.9 1010.6
19 01:55 SE 16 10.00 Mostly Cloudy BKN180 78.1 67.8 71% 80 29.89 1010.2
19 00:55 SE 17 10.00 Fair CLR 80.1 67.6 89.6 79.9 66% 83 29.89 1010.2
18 23:55 SE 16 10.00 Fair CLR 81.1 66.4 61% 83 29.89 1010.3
18 22:55 SE 18 G 28 10.00 Fair CLR 82.8 65.8 57% 85 29.85 1008.8
18 21:55 SE 22 G 29 10.00 Fair and Breezy CLR 83.8 66.9 57% 86 29.82 1007.8
18 20:55 SE 21 10.00 Fair and Breezy CLR 85.6 67.6 55% 89 29.79 1006.8
18 19:55 SE 23 10.00 Mostly Cloudy and Breezy BKN060 88.3 66.7 49% 91 29.77 1006.1
18 18:55 S 23 G 30 10.00 Mostly Cloudy and Breezy BKN060 89.8 68 90 82.4 49% 94 29.76 1005.7
18 17:55 S 17 G 24 10.00 Overcast SCT050 OVC060 88.7 68.2 51% 93 29.76 1005.7
18 16:55 S 21 10.00 Overcast and Breezy OVC055 88.9 68.4 51% 93 29.76 1005.7
18 15:55 S 28 G 31 10.00 Mostly Cloudy and Windy BKN049 BKN200 88.2 67.6 51% 92 29.76 1005.7
18 14:55 S 25 G 31 10.00 Overcast and Breezy BKN042 OVC050 86.7 68.5 55% 91 29.79 1006.8
18 13:55 S 24 G 32 10.00 Overcast and Breezy BKN037 OVC044 85.5 68.9 58% 89 29.78 1006.3
18 12:55 S 25 G 29 10.00 Overcast and Breezy OVC034 82.4 68.5 85.1 77.4 63% 86 29.79 1006.8
18 11:55 S 21 G 31 10.00 Light Drizzle and Breezy OVC037 80.2 69.1 69% 83 29.78 1006.5
18 10:55 S 21 10.00 Overcast and Breezy BKN034 OVC042 83.5 68 60% 87 29.78 1006.3
18 09:56 S 20 G 24 10.00 Overcast BKN029 OVC037 79.5 68 68% 82 29.79 1006.8
18 08:56 S 17 G 25 10.00 Overcast BKN026 OVC031 78.1 68.7 73% 80 29.79 1006.7
18 07:55 S 22 10.00 Overcast and Breezy OVC020 77.4 69.1 76% 79 29.78 1006.3
18 06:55 S 15 G 21 10.00 Mostly Cloudy BKN020 77.5 69.3 82.2 77 76% 79 29.76 1005.7
18 05:55 S 24 G 32 10.00 Mostly Cloudy and Breezy BKN200 77.2 69.4 77% 79 29.7 1003.6
18 04:55 S 23 G 32 10.00 A Few Clouds and Breezy FEW180 78.3 69.6 75% 81 29.7 1003.5
18 03:55 S 26 G 31 10.00 Mostly Cloudy and Windy FEW180 BKN200 79.7 69.4 71% 83 29.71 1003.8
18 02:55 S 18 10.00 A Few Clouds FEW029 80.2 70.3 72% 84 29.72 1004.1
17 15:55 SE 29 G 38 10.00 Partly Cloudy and Windy SCT040 93.7 68.4 44% 99 29.69 1003.5
17 14:55 S 25 G 32 10.00 A Few Clouds and Breezy FEW050 93.7 68.4 44% 99 29.7 1003.5
17 13:55 S 25 G 31 10.00 A Few Clouds and Breezy FEW049 92.1 68.9 47% 97 29.73 1004.5
17 12:55 S 23 G 31 10.00 A Few Clouds and Breezy FEW043 FEW190 91 68.5 91 73.9 48% 95 29.74 1004.9
17 11:55 S 21 G 30 10.00 Partly Cloudy and Breezy SCT037 88.9 69.4 53% 94 29.76 1005.5
17 11:05 S 22 G 30 10.00 A Few Clouds and Breezy FEW036 87.1 68.9 55% 91 29.77 1005.9
17 10:55 S 22 G 30 10.00 A Few Clouds and Breezy FEW036 87.1 68.9 55% 91 29.77 1005.9
17 09:55 S 25 G 30 10.00 Fair and Breezy CLR 85.3 68.7 58% 89 29.77 1005.9
17 08:55 S 21 10.00 Fair and Breezy CLR 82.6 69.6 65% 86 29.77 1006.0
17 07:55 SE 15 10.00 Fair CLR 77.9 69.3 75% 80 29.76 1005.7
17 06:55 SE 10 10.00 Fair CLR 73.6 66.9 80.2 73.4 80% 29.75 1005.4
17 05:55 SE 12 10.00 Fair CLR 74.1 66.7 78% 29.75 1005.3
17 04:55 SE 9 10.00 Fair CLR 75.6 66.2 73% 77 29.76 1005.7
Date Time (cdt) Wind (mph) Vis. (mi.) Weather Sky Cond. Air Dwpt Max. Min. Relative Humidity Wind Chill (°F) Heat Index (°F) altimeter (in) sea level (mb) 1 hr 3 hr 6 hr
6 hour
Temperature (ºF) Pressure Precipitation (in)